Temp
63 62 63 64 65 66 66 66 67 68 69 70 69 68 67 67 67 66 65 65 64 64 65 63 63 63 63 63 63 62 62 62 61 61 59 58 58 59 60 60 59 60 61 61 61 59 58 57 59 61 61 61 62 62 62 63 63 63 63 62 63 63 63
63 63 64 65 63 64 64 64 66 67 67 67 68 67 67 66 66 65 64 64 64 64 64 64 62 62 62 62 62 62 61 61 61 62 60 60 58 60 59 57 59 58 58 59 60 59 58 57 58 59 60 62 61 61 61 62 62 63 63 63 64 64 63
63 62 63 63 62 63 63 63 64 66 66 66 66 66 66 65 65 65 64 63 62 63 64 61 62 62 62 61 60 61 61 60 60 60 60 60 60 60 59 60 58 58 57 56 57 58 59 59 57 58 60 59 58 60 62 61 62 62 62 63 63 63 63
62 62 62 61 62 61 62 62 62 65 66 65 65 66 66 65 65 65 63 63 63 64 63 62 61 61 61 61 61 61 61 60 60 60 60 59 59 59 59 59 59 60 59 58 60 60 59 58 58 58 60 61 60 59 62 62 63 64 63 62 62 63 63
63 63 62 61 61 61 62 62 63 64 64 64 64 64 64 64 63 62 63 62 62 61 61 61 61 61 61 61 61 61 61 61 61 62 60 61 61 61 60 60 60 62 62 61 61 61 60 59 59 58 58 60 60 61 64 63 63 62 62 61 63 63 63
63 63 63 62 62 62 62 62 63 63 63 63 62 62 61 62 62 61 61 61 60 61 60 60 60 60 60 61 60 60 60 60 60 61 62 63 63 62 62 63 62 62 60 61 61 61 61 61 60 58 60 61 58 59 63 62 59 61 63 62 62 62 63
62 63 62 62 62 62 62 63 63 62 62 62 61 61 61 62 61 61 61 60 60 60 60 60 59 60 60 60 59 59 59 60 62 63 63 64 64 63 62 62 62 60 59 60 61 61 61 60 59 59 58 59 60 59 62 59 59 59 57 59 62 63 63
62 62 62 63 63 62 63 63 62 62 62 61 61 61 61 61 61 60 60 59 60 59 60 59 61 59 59 59 59 59 60 62 63 63 61 62 61 60 59 59 60 59 57 58 59 60 61 60 60 60 59 57 58 59 59 58 58 59 59 60 62 62 62
63 62 62 63 63 63 63 63 62 62 62 61 61 61 61 61 60 60 60 59 59 59 59 58 58 60 58 59 58 59 60 62 63 62 61 60 60 59 58 58 57 56 57 57 58 58 59 60 60 60 59 58 56 55 58 58 57 58 59 58 59 60 61
62 62 62 63 63 63 63 63 63 62 61 61 61 61 60 60 60 60 59 59 59 59 58 58 59 60 61 61 60 59 60 62 63 61 60 59 59 58 57 56 55 55 55 56 55 55 56 57 58 59 59 58 58 56 55 55 57 57 57 59 57 57 61
63 63 63 63 63 63 62 62 62 61 60 61 61 61 60 59 60 61 59 59 59 59 58 58 60 62 63 63 62 61 61 62 61 60 59 58 57 57 56 55 53 52 54 53 53 53 54 55 56 57 58 59 58 56 56 55 56 58 56 57 58 59 60
64 64 64 63 63 63 62 62 61 60 60 60 61 60 60 59 59 58 58 59 60 59 59 62 63 62 62 62 62 61 62 61 59 58 57 57 56 55 54 53 53 52 53 52 52 53 55 55 55 57 56 56 57 56 55 55 54 57 59 57 57 60 60
64 63 62 62 63 63 62 61 61 60 60 60 60 60 60 59 59 58 60 60 59 60 62 62 62 62 62 61 61 61 61 61 59 57 57 58 58 57 56 54 53 52 52 52 52 54 54 55 56 54 54 54 54 55 54 54 53 54 60 59 59 60 61
62 62 62 62 61 60 60 60 60 60 60 59 60 60 59 58 60 61 60 59 61 61 60 60 61 61 61 61 61 61 61 60 59 58 58 57 58 57 55 53 52 52 52 51 52 54 54 54 54 53 53 52 52 53 53 53 52 53 58 61 60 59 60
61 61 60 60 60 59 59 59 59 60 59 59 60 60 59 58 58 59 59 59 59 60 60 60 60 60 60 60 60 60 60 59 58 57 57 56 56 56 55 52 51 51 52 52 53 53 53 53 52 52 52 52 51 52 54 53 53 54 54 58 57 57 56
60 59 59 59 58 58 58 58 59 59 59 58 58 59 58 57 57 57 57 56 57 57 58 58 59 59 59 59 59 59 59 58 57 56 56 55 55 55 53 51 50 51 52 51 52 52 53 52 53 52 51 52 52 52 54 55 53 52 52 53 55 53 53
59 58 58 58 57 57 58 58 59 59 59 59 58 58 58 58 57 56 55 54 55 56 56 57 58 58 59 59 59 58 58 58 57 55 54 54 54 54 54 53 52 51 50 50 50 51 52 52 52 52 51 52 52 52 54 54 53 51 51 50 51 51 52
58 57 57 57 57 58 58 58 59 59 58 58 57 57 57 57 56 55 53 52 53 54 55 56 55 55 57 59 59 59 58 57 56 55 55 55 56 55 54 53 52 51 50 49 50 50 51 50 51 52 51 52 52 53 54 53 52 52 50 48 49 51 52
57 57 57 57 58 59 59 59 59 58 58 57 57 57 56 56 55 54 54 54 54 54 54 54 54 54 56 58 58 58 58 57 56 56 56 56 55 55 53 53 53 52 50 49 48 49 50 50 50 51 51 51 51 52 51 52 52 51 50 49 49 48 51
57 57 58 58 59 60 60 59 59 58 58 56 55 55 56 55 55 54 54 54 54 53 52 52 51 52 54 56 58 57 55 55 56 55 56 56 55 54 53 53 52 52 51 50 49 48 49 49 50 49 50 51 52 52 51 51 51 50 49 49 49 49 49
57 58 59 59 59 59 59 57 57 58 57 55 55 54 53 54 55 55 53 52 51 51 50 49 49 49 51 53 55 54 55 55 55 55 55 55 55 54 53 52 52 52 51 50 49 48 48 48 49 48 48 49 49 50 50 50 50 49 49 48 47 46 48
57 57 58 59 59 59 58 58 58 57 55 54 53 53 54 55 54 52 51 49 48 47 46 45 45 45 47 51 52 51 51 51 51 51 51 53 55 54 52 52 52 52 53 53 50 49 48 49 48 47 48 48 48 48 48 49 49 49 48 47 46 47 47
57 57 57 57 59 59 58 58 58 56 54 53 53 54 55 54 51 48 47 46 45 46 45 46 48 48 51 50 49 50 50 49 49 48 49 49 50 52 53 52 54 56 54 53 50 46 45 46 48 48 47 47 47 47 48 48 48 48 47 46 45 45 44
57 57 58 59 59 58 58 58 57 55 53 53 53 53 52 49 48 47 46 45 45 45 44 46 46 44 45 48 50 48 48 47 47 47 47 46 46 47 49 50 51 53 52 52 48 47 45 45 44 44 45 46 47 47 47 47 47 47 46 45 45 44 44
57 57 59 59 58 57 58 57 55 53 52 51 51 51 49 48 47 46 46 45 44 44 44 45 44 44 45 45 48 48 47 47 46 45 45 45 45 45 46 47 48 49 49 50 50 46 47 47 45 44 44 44 44 43 44 46 47 47 46 45 44 43 43
57 58 58 58 58 58 57 55 53 52 51 51 51 50 48 48 46 46 45 45 43 43 42 43 44 44 44 44 45 48 47 46 46 44 44 44 44 44 45 46 47 48 49 53 51 47 46 47 47 48 47 47 47 46 42 42 44 48 48 46 44 43 43
57 58 57 57 58 57 56 54 53 52 52 51 50 49 48 47 46 46 45 45 43 42 42 44 44 44 44 44 44 46 47 46 45 45 44 44 44 44 44 45 45 46 48 49 48 47 48 47 46 47 47 46 46 47 46 46 45 45 47 47 45 43 44
57 57 57 58 57 57 54 53 53 52 51 50 49 48 48 46 46 46 45 44 44 43 43 43 43 44 44 44 44 45 46 46 45 43 43 43 43 43 43 44 45 46 48 48 47 46 51 48 46 46 43 44 44 44 44 45 47 47 47 47 47 45 45
57 56 57 57 57 55 54 52 51 51 49 48 48 47 47 47 45 44 44 44 44 43 42 42 43 43 43 44 45 48 46 45 44 43 43 43 43 43 43 43 43 45 46 47 45 42 47 50 48 46 45 43 44 43 44 46 43 44 46 46 47 46 45
56 57 57 57 56 54 52 51 51 51 49 47 47 46 45 45 44 43 44 44 43 43 43 44 43 43 43 44 46 47 45 45 44 43 43 43 43 44 45 44 42 43 44 44 43 41 43 48 47 46 45 45 45 45 47 50 48 44 43 43 43 43 42
57 57 57 56 54 52 52 52 51 51 48 46 46 45 45 44 44 44 43 43 43 44 43 44 43 43 44 45 47 46 44 44 43 43 43 42 43 43 47 50 48 43 43 42 42 42 43 47 45 44 45 45 45 44 46 48 49 49 46 45 44 44 43
57 57 56 55 54 53 51 50 50 50 48 47 45 45 45 43 42 43 43 44 48 45 44 45 43 43 43 44 47 44 45 44 44 42 43 44 44 44 45 47 47 45 45 43 41 42 42 45 43 41 42 44 44 43 42 44 45 45 46 45 45 46 45
56 56 56 54 54 53 52 51 50 49 47 46 45 44 43 43 43 42 42 43 44 44 45 43 44 43 44 44 45 46 44 43 44 42 43 45 44 44 44 44 46 41 41 41 42 41 42 43 44 41 42 43 43 44 43 46 46 45 44 44 43 44 43
56 56 56 55 53 51 51 49 48 47 46 45 45 43 43 43 43 42 42 42 43 43 45 44 43 43 43 43 44 44 43 42 41 42 42 42 42 42 43 42 42 42 41 41 42 42 42 42 44 43 41 41 41 43 45 45 46 47 43 43 43 43 43
57 57 56 54 52 50 50 50 48 47 46 45 44 43 42 42 42 41 41 42 42 42 45 46 44 43 43 43 43 43 45 42 42 43 42 42 42 42 41 40 41 42 41 41 41 42 42 42 43 45 42 41 41 42 45 43 43 43 43 42 41 41 41
56 56 54 53 51 49 49 49 48 47 46 45 44 43 42 42 42 41 41 40 40 40 41 44 45 44 43 43 42 42 42 41 43 43 42 41 39 39 39 39 42 44 42 42 42 42 42 43 44 42 41 42 42 42 44 43 42 42 40 41 41 40 39
55 54 53 52 51 49 48 48 46 46 46 45 43 42 41 42 42 41 40 39 40 39 39 39 42 43 43 41 40 40 40 40 42 42 41 40 39 38 43 40 41 41 42 42 42 42 42 42 42 41 42 42 43 43 45 44 41 41 40 39 39 39 39
MSLP
1015.40 1015.60 1015.60 1015.60 1015.52 1015.56 1015.72 1015.84 1015.92 1015.84 1015.76 1015.80 1015.96 1016.20 1016.36 1016.56 1016.76 1017.00 1017.16 1017.28 1017.44 1017.48 1017.44 1017.56 1017.60 1017.48 1017.40 1017.32 1017.28 1017.28 1017.28 1017.32 1017.36 1017.56 1017.60 1017.48 1017.68 1017.56 1017.12 1017.24 1017.16 1017.12 1017.12 1017.24 1017.40 1017.68 1017.72 1017.56 1016.68 1015.80 1015.44 1015.20 1015.04 1014.92 1014.80 1014.64 1014.32 1014.04 1013.88 1013.72 1013.44 1013.28 1013.28
1015.36 1015.44 1015.32 1015.28 1015.44 1015.52 1015.84 1016.04 1016.12 1015.96 1016.00 1016.00 1016.04 1016.24 1016.44 1016.64 1016.84 1017.08 1017.20 1017.36 1017.44 1017.52 1017.48 1017.52 1017.52 1017.48 1017.48 1017.40 1017.32 1017.32 1017.36 1017.32 1017.28 1017.32 1017.44 1017.40 1017.44 1017.48 1017.40 1017.28 1017.20 1017.20 1017.08 1017.08 1017.04 1017.28 1017.60 1017.52 1017.12 1016.84 1016.12 1015.28 1015.08 1014.80 1014.56 1014.40 1014.20 1014.00 1013.72 1013.48 1013.32 1013.08 1012.92
1015.44 1015.52 1015.36 1015.40 1015.52 1015.64 1015.92 1016.16 1016.16 1016.24 1016.24 1016.24 1016.28 1016.36 1016.64 1016.84 1017.04 1017.12 1017.28 1017.40 1017.52 1017.56 1017.64 1017.68 1017.64 1017.60 1017.56 1017.48 1017.48 1017.44 1017.44 1017.44 1017.32 1017.32 1017.36 1017.36 1017.32 1017.24 1017.24 1017.24 1017.36 1017.20 1017.12 1017.04 1017.04 1017.12 1017.20 1017.20 1017.28 1017.00 1016.64 1016.36 1015.88 1014.76 1014.48 1014.32 1014.12 1013.84 1013.56 1013.24 1013.08 1012.96 1012.80
1015.36 1015.40 1015.52 1015.64 1015.64 1015.92 1016.08 1016.36 1016.28 1016.40 1016.40 1016.44 1016.44 1016.64 1016.80 1017.00 1017.16 1017.28 1017.44 1017.52 1017.60 1017.68 1017.76 1017.76 1017.80 1017.72 1017.64 1017.56 1017.56 1017.48 1017.52 1017.56 1017.52 1017.36 1017.32 1017.24 1017.24 1017.24 1017.16 1017.16 1017.20 1017.24 1017.40 1017.40 1017.24 1017.08 1017.16 1017.16 1017.00 1016.80 1016.52 1016.32 1016.16 1015.48 1014.40 1014.16 1013.92 1013.52 1013.32 1013.08 1012.92 1012.68 1012.56
1015.00 1015.12 1015.16 1015.40 1015.60 1015.92 1016.20 1016.40 1016.32 1016.68 1016.64 1016.48 1016.60 1016.80 1017.04 1017.16 1017.32 1017.48 1017.52 1017.60 1017.72 1017.80 1017.88 1017.88 1017.84 1017.76 1017.64 1017.56 1017.56 1017.60 1017.60 1017.48 1017.40 1017.36 1017.32 1017.32 1017.28 1017.24 1017.16 1017.08 1017.08 1017.00 1017.00 1017.12 1017.00 1016.92 1016.96 1016.84 1016.80 1016.68 1016.56 1016.16 1015.80 1015.44 1014.56 1014.08 1013.60 1013.44 1013.12 1012.96 1012.68 1012.56 1012.32
1014.76 1014.72 1014.88 1015.12 1015.44 1015.80 1016.08 1016.32 1016.44 1016.88 1016.56 1016.48 1016.72 1016.96 1017.20 1017.28 1017.40 1017.56 1017.64 1017.72 1017.88 1017.92 1017.92 1017.92 1017.88 1017.76 1017.60 1017.56 1017.64 1017.64 1017.68 1017.64 1017.60 1017.52 1017.44 1017.40 1017.32 1017.40 1017.32 1017.00 1016.96 1017.00 1017.08 1016.96 1016.84 1016.76 1016.60 1016.52 1016.52 1016.52 1016.20 1016.04 1016.04 1015.44 1014.72 1014.44 1013.96 1013.12 1012.88 1012.76 1012.56 1012.36 1012.24
1014.76 1014.80 1014.84 1015.00 1015.44 1015.72 1015.96 1016.12 1016.36 1016.48 1016.36 1016.36 1016.68 1016.96 1017.20 1017.32 1017.48 1017.60 1017.72 1017.84 1017.88 1017.92 1017.96 1017.96 1017.92 1017.80 1017.68 1017.68 1017.72 1017.76 1017.80 1017.72 1017.60 1017.52 1017.52 1017.48 1017.44 1017.44 1017.40 1017.40 1017.24 1017.32 1017.32 1017.16 1017.00 1016.76 1016.60 1016.48 1016.36 1016.28 1016.08 1015.88 1015.72 1015.44 1014.72 1014.40 1013.96 1013.84 1012.88 1012.56 1012.40 1012.24 1012.08
1014.76 1014.84 1014.96 1015.00 1015.36 1015.72 1015.84 1016.00 1016.32 1016.28 1016.20 1016.44 1016.68 1017.04 1017.20 1017.32 1017.48 1017.68 1017.84 1017.92 1017.96 1017.92 1017.96 1017.96 1017.92 1017.84 1017.76 1017.72 1017.80 1017.88 1017.84 1017.72 1017.64 1017.68 1017.76 1017.80 1017.84 1017.80 1017.88 1017.92 1017.68 1017.68 1017.64 1017.52 1017.24 1016.96 1016.68 1016.52 1016.28 1016.08 1015.96 1015.84 1015.44 1015.20 1014.96 1014.40 1014.12 1014.00 1013.52 1012.72 1012.32 1012.16 1011.96
1014.80 1014.88 1015.08 1015.28 1015.52 1015.64 1015.80 1016.00 1016.28 1016.28 1016.32 1016.48 1016.76 1016.96 1017.20 1017.36 1017.64 1017.80 1017.88 1018.00 1017.96 1017.96 1018.00 1018.04 1018.00 1017.92 1017.88 1017.92 1017.96 1017.96 1017.92 1017.80 1017.84 1017.92 1018.08 1018.08 1018.12 1018.12 1018.24 1018.20 1018.04 1018.04 1017.88 1017.72 1017.52 1017.36 1017.04 1016.72 1016.44 1016.16 1016.00 1015.84 1015.68 1015.36 1014.92 1014.72 1014.24 1013.96 1013.32 1013.20 1012.44 1012.12 1012.08
1014.92 1014.92 1015.16 1015.40 1015.60 1015.76 1015.96 1016.16 1016.32 1016.48 1016.48 1016.52 1016.84 1017.08 1017.32 1017.48 1017.64 1017.80 1017.92 1017.96 1017.96 1017.96 1018.00 1018.04 1018.00 1017.96 1018.00 1018.04 1018.12 1018.08 1018.08 1018.00 1018.00 1018.20 1018.36 1018.44 1018.48 1018.44 1018.48 1018.52 1018.44 1018.28 1018.12 1017.96 1017.80 1017.64 1017.36 1017.00 1016.72 1016.36 1016.08 1015.96 1015.68 1015.52 1015.16 1014.84 1014.48 1014.28 1013.60 1013.32 1013.40 1012.44 1012.08
1014.92 1015.04 1015.20 1015.44 1015.68 1015.88 1016.20 1016.40 1016.56 1016.68 1016.76 1016.76 1016.88 1017.16 1017.32 1017.52 1017.72 1017.80 1017.88 1017.92 1017.96 1017.96 1018.04 1018.08 1018.08 1018.12 1018.12 1018.20 1018.20 1018.20 1018.24 1018.24 1018.40 1018.52 1018.60 1018.68 1018.80 1018.72 1018.72 1018.64 1018.56 1018.48 1018.28 1018.12 1017.96 1017.72 1017.44 1017.20 1016.88 1016.56 1016.24 1016.00 1015.80 1015.68 1015.36 1015.08 1014.56 1014.00 1013.76 1013.40 1013.24 1012.96 1012.36
1014.92 1015.12 1015.28 1015.44 1015.64 1015.96 1016.28 1016.48 1016.76 1016.92 1016.92 1016.88 1016.96 1017.20 1017.40 1017.64 1017.88 1017.92 1017.88 1017.96 1017.96 1018.12 1018.20 1018.24 1018.24 1018.24 1018.28 1018.36 1018.40 1018.44 1018.48 1018.52 1018.64 1018.80 1018.88 1018.84 1018.92 1018.88 1018.88 1018.84 1018.72 1018.64 1018.44 1018.24 1017.96 1017.64 1017.36 1017.12 1016.96 1016.68 1016.52 1016.40 1016.08 1015.96 1015.72 1015.32 1014.96 1014.00 1013.76 1013.76 1013.24 1012.92 1012.76
1014.96 1015.16 1015.32 1015.48 1015.76 1016.08 1016.40 1016.64 1016.88 1017.00 1017.04 1016.96 1017.04 1017.20 1017.48 1017.68 1017.80 1017.88 1017.96 1018.00 1018.16 1018.28 1018.36 1018.40 1018.44 1018.44 1018.44 1018.52 1018.60 1018.60 1018.64 1018.68 1018.84 1019.00 1019.08 1019.04 1019.04 1019.08 1019.08 1019.04 1018.96 1018.84 1018.60 1018.40 1018.08 1017.72 1017.48 1017.24 1017.08 1017.00 1016.96 1016.80 1016.52 1016.32 1016.08 1015.76 1015.20 1014.60 1013.92 1013.68 1013.28 1013.04 1012.80
1015.08 1015.28 1015.48 1015.64 1015.96 1016.36 1016.64 1016.88 1017.04 1017.04 1016.92 1017.00 1017.04 1017.24 1017.52 1017.80 1017.88 1018.04 1018.16 1018.28 1018.36 1018.48 1018.64 1018.64 1018.60 1018.60 1018.64 1018.76 1018.76 1018.76 1018.80 1018.88 1019.08 1019.24 1019.28 1019.32 1019.28 1019.28 1019.28 1019.24 1019.16 1019.00 1018.76 1018.56 1018.24 1017.92 1017.68 1017.52 1017.40 1017.32 1017.24 1017.08 1016.88 1016.56 1016.32 1016.00 1015.48 1014.84 1014.00 1013.44 1013.44 1013.40 1013.00
1015.16 1015.44 1015.68 1016.00 1016.32 1016.68 1017.00 1017.20 1017.12 1016.96 1016.96 1017.08 1017.08 1017.32 1017.68 1018.00 1018.20 1018.36 1018.48 1018.56 1018.56 1018.68 1018.76 1018.84 1018.84 1018.72 1018.84 1018.96 1019.00 1019.04 1019.08 1019.24 1019.36 1019.44 1019.48 1019.60 1019.56 1019.52 1019.48 1019.44 1019.40 1019.16 1018.88 1018.72 1018.40 1018.12 1017.96 1017.88 1017.76 1017.56 1017.40 1017.24 1017.00 1016.68 1016.32 1016.08 1015.52 1015.00 1014.44 1013.84 1013.80 1013.64 1013.44
1015.40 1015.64 1015.92 1016.28 1016.60 1016.92 1017.16 1017.16 1017.00 1016.96 1017.12 1017.24 1017.32 1017.56 1018.00 1018.28 1018.48 1018.64 1018.72 1018.76 1018.84 1018.96 1019.00 1019.12 1019.00 1018.88 1018.96 1019.08 1019.20 1019.28 1019.36 1019.44 1019.56 1019.64 1019.72 1019.80 1019.80 1019.72 1019.68 1019.68 1019.60 1019.40 1019.12 1018.84 1018.60 1018.40 1018.16 1018.04 1017.84 1017.72 1017.52 1017.24 1017.04 1016.72 1016.32 1016.04 1015.88 1015.48 1015.16 1014.72 1014.40 1014.28 1013.96
1015.56 1015.84 1016.16 1016.48 1016.76 1017.04 1017.12 1017.08 1016.96 1017.04 1017.24 1017.44 1017.76 1018.08 1018.28 1018.52 1018.72 1018.84 1018.96 1019.04 1019.16 1019.24 1019.44 1019.32 1019.12 1019.08 1019.12 1019.20 1019.28 1019.44 1019.52 1019.60 1019.68 1019.76 1019.88 1019.96 1019.92 1019.84 1019.84 1019.80 1019.72 1019.56 1019.36 1019.12 1018.88 1018.60 1018.36 1018.20 1018.04 1017.88 1017.68 1017.32 1017.12 1016.80 1016.40 1016.28 1016.16 1016.16 1015.80 1015.56 1014.92 1014.92 1014.40
1015.72 1016.00 1016.32 1016.60 1016.84 1016.96 1017.00 1017.04 1017.08 1017.20 1017.44 1017.84 1018.20 1018.44 1018.72 1018.80 1018.92 1019.12 1019.28 1019.36 1019.44 1019.60 1019.68 1019.56 1019.36 1019.28 1019.24 1019.24 1019.36 1019.48 1019.64 1019.76 1019.84 1019.88 1019.88 1019.92 1019.92 1020.00 1020.00 1020.04 1019.96 1019.76 1019.60 1019.44 1019.16 1018.88 1018.64 1018.48 1018.36 1018.16 1017.96 1017.64 1017.36 1017.00 1016.76 1016.56 1016.40 1016.24 1016.16 1015.96 1015.56 1015.04 1014.68
1015.92 1016.12 1016.32 1016.60 1016.76 1016.80 1016.88 1017.04 1017.20 1017.44 1017.84 1018.28 1018.56 1018.76 1018.92 1019.04 1019.12 1019.32 1019.48 1019.60 1019.68 1019.80 1019.84 1019.76 1019.64 1019.52 1019.40 1019.40 1019.44 1019.60 1019.72 1019.84 1019.88 1019.92 1019.92 1020.00 1020.08 1020.12 1020.20 1020.20 1020.12 1020.00 1019.84 1019.68 1019.52 1019.24 1018.92 1018.76 1018.56 1018.40 1018.20 1017.96 1017.60 1017.32 1017.08 1016.84 1016.56 1016.44 1016.32 1016.24 1015.96 1015.44 1014.72
1016.00 1016.20 1016.32 1016.44 1016.56 1016.72 1016.92 1017.16 1017.36 1017.80 1018.20 1018.48 1018.76 1019.00 1019.08 1019.24 1019.44 1019.60 1019.80 1019.92 1020.04 1020.12 1020.12 1019.96 1019.80 1019.68 1019.64 1019.60 1019.56 1019.68 1019.84 1019.92 1019.92 1019.92 1019.96 1020.08 1020.20 1020.28 1020.32 1020.32 1020.32 1020.20 1020.08 1019.92 1019.76 1019.52 1019.28 1019.00 1018.80 1018.64 1018.44 1018.16 1017.84 1017.52 1017.28 1017.04 1016.76 1016.60 1016.48 1016.32 1016.00 1015.72 1015.32
1016.12 1016.24 1016.28 1016.40 1016.64 1016.84 1017.00 1017.36 1017.72 1018.08 1018.40 1018.72 1018.96 1019.16 1019.28 1019.44 1019.68 1019.88 1020.08 1020.24 1020.40 1020.44 1020.40 1020.16 1019.92 1020.00 1020.00 1019.92 1019.84 1019.88 1019.88 1019.96 1019.96 1019.96 1020.04 1020.16 1020.28 1020.40 1020.40 1020.40 1020.36 1020.28 1020.28 1020.20 1020.04 1019.88 1019.64 1019.40 1019.12 1018.88 1018.68 1018.40 1018.12 1017.80 1017.52 1017.32 1017.00 1016.80 1016.64 1016.48 1016.36 1016.08 1015.56
1016.24 1016.32 1016.40 1016.64 1016.92 1017.08 1017.36 1017.68 1017.96 1018.32 1018.68 1019.00 1019.20 1019.32 1019.40 1019.60 1019.92 1020.16 1020.36 1020.52 1020.64 1020.72 1020.60 1020.48 1020.48 1020.40 1020.24 1020.16 1020.24 1020.32 1020.36 1020.36 1020.32 1020.40 1020.52 1020.48 1020.44 1020.48 1020.48 1020.40 1020.32 1020.24 1020.16 1020.16 1020.12 1020.08 1019.96 1019.76 1019.52 1019.32 1019.04 1018.68 1018.40 1018.16 1017.88 1017.56 1017.36 1017.12 1016.88 1016.76 1016.52 1016.24 1015.88
1016.32 1016.48 1016.72 1016.92 1017.08 1017.36 1017.64 1017.88 1018.16 1018.52 1018.88 1019.12 1019.28 1019.40 1019.60 1019.92 1020.16 1020.40 1020.64 1020.80 1020.88 1020.88 1020.84 1020.76 1020.64 1020.52 1020.44 1020.48 1020.60 1020.72 1020.80 1020.88 1020.88 1020.96 1020.92 1020.88 1020.80 1020.68 1020.60 1020.52 1020.36 1020.20 1020.20 1020.20 1020.16 1020.08 1020.04 1019.92 1019.76 1019.64 1019.52 1019.16 1018.80 1018.48 1018.16 1017.92 1017.80 1017.60 1017.40 1017.20 1017.08 1016.84 1016.36
1016.44 1016.68 1016.84 1017.04 1017.20 1017.64 1017.92 1018.12 1018.40 1018.76 1019.04 1019.24 1019.48 1019.68 1019.96 1020.20 1020.44 1020.64 1020.80 1020.88 1020.88 1021.00 1021.04 1020.96 1020.76 1020.64 1020.68 1020.76 1020.84 1021.04 1021.12 1021.28 1021.32 1021.32 1021.32 1021.28 1021.24 1021.08 1020.92 1020.76 1020.60 1020.36 1020.28 1020.20 1020.20 1020.08 1019.96 1019.96 1019.84 1019.60 1019.48 1019.40 1019.20 1018.92 1018.60 1018.32 1018.16 1018.08 1017.92 1017.72 1017.56 1017.28 1016.96
1016.52 1016.72 1016.84 1017.08 1017.44 1017.84 1018.08 1018.36 1018.68 1019.00 1019.24 1019.52 1019.80 1020.00 1020.24 1020.48 1020.68 1020.88 1021.00 1021.04 1021.12 1021.20 1021.24 1021.28 1021.04 1020.92 1021.00 1021.04 1021.12 1021.32 1021.44 1021.56 1021.64 1021.68 1021.68 1021.60 1021.48 1021.28 1021.08 1020.88 1020.72 1020.60 1020.36 1020.16 1020.16 1020.08 1019.92 1019.84 1019.80 1019.72 1019.56 1019.44 1019.32 1019.16 1018.96 1018.80 1018.64 1018.40 1018.28 1018.12 1017.80 1017.72 1017.44
1016.52 1016.72 1016.92 1017.28 1017.68 1017.96 1018.24 1018.56 1018.88 1019.16 1019.44 1019.72 1019.96 1020.20 1020.48 1020.68 1020.92 1021.08 1021.08 1021.08 1021.28 1021.44 1021.48 1021.48 1021.24 1021.24 1021.28 1021.32 1021.36 1021.44 1021.64 1021.76 1021.84 1021.96 1021.88 1021.76 1021.60 1021.44 1021.28 1021.04 1020.84 1020.68 1020.52 1020.24 1020.16 1020.04 1019.88 1019.76 1019.76 1019.72 1019.56 1019.52 1019.36 1019.24 1019.12 1018.96 1018.84 1018.76 1018.60 1018.48 1018.32 1018.12 1017.92
1016.48 1016.72 1017.08 1017.44 1017.76 1018.04 1018.36 1018.68 1019.00 1019.32 1019.60 1019.84 1020.12 1020.44 1020.64 1020.84 1021.00 1021.08 1021.12 1021.28 1021.48 1021.60 1021.64 1021.68 1021.52 1021.52 1021.48 1021.52 1021.56 1021.64 1021.88 1021.96 1022.08 1022.08 1022.04 1021.96 1021.84 1021.68 1021.48 1021.32 1021.12 1020.84 1020.68 1020.44 1020.28 1020.00 1019.80 1019.72 1019.76 1019.72 1019.68 1019.68 1019.64 1019.48 1019.36 1019.16 1019.04 1018.96 1018.76 1018.72 1018.64 1018.56 1018.36
1016.64 1017.00 1017.24 1017.48 1017.76 1018.08 1018.48 1018.88 1019.20 1019.48 1019.76 1020.04 1020.32 1020.56 1020.76 1020.92 1021.04 1021.16 1021.32 1021.44 1021.48 1021.64 1021.88 1021.84 1021.76 1021.76 1021.76 1021.80 1021.84 1021.92 1022.08 1022.16 1022.20 1022.16 1022.16 1022.08 1021.96 1021.84 1021.76 1021.60 1021.44 1021.28 1021.00 1020.72 1020.60 1020.32 1019.84 1019.88 1019.84 1019.80 1019.76 1019.76 1019.76 1019.72 1019.68 1019.56 1019.40 1019.24 1019.12 1018.92 1018.80 1018.76 1018.56
1016.76 1017.08 1017.32 1017.56 1017.80 1018.16 1018.56 1019.00 1019.40 1019.72 1020.08 1020.40 1020.64 1020.76 1020.96 1021.08 1021.20 1021.28 1021.40 1021.40 1021.32 1021.64 1021.92 1021.88 1021.92 1021.96 1021.96 1022.00 1022.04 1022.16 1022.24 1022.24 1022.24 1022.20 1022.12 1022.08 1022.00 1021.92 1021.88 1021.80 1021.60 1021.40 1021.20 1020.96 1020.76 1020.28 1019.96 1019.88 1019.88 1019.88 1019.84 1019.84 1019.76 1019.72 1019.68 1019.76 1019.76 1019.56 1019.44 1019.28 1019.12 1018.96 1018.84
1016.84 1017.08 1017.32 1017.64 1017.96 1018.36 1018.80 1019.28 1019.64 1019.88 1020.32 1020.68 1020.84 1021.08 1021.24 1021.32 1021.44 1021.44 1021.44 1021.48 1021.44 1021.72 1021.88 1022.00 1022.00 1022.04 1022.12 1022.16 1022.20 1022.32 1022.40 1022.44 1022.40 1022.28 1022.24 1022.24 1022.16 1022.04 1021.92 1021.84 1021.76 1021.52 1021.28 1021.12 1020.88 1020.28 1020.16 1019.88 1019.96 1020.04 1020.04 1020.00 1019.96 1019.84 1019.80 1019.64 1019.60 1019.56 1019.56 1019.48 1019.32 1019.04 1018.80
1016.80 1017.04 1017.40 1017.84 1018.32 1018.72 1019.00 1019.32 1019.72 1020.00 1020.40 1020.80 1021.16 1021.36 1021.48 1021.56 1021.64 1021.60 1021.56 1021.68 1021.64 1021.60 1021.96 1022.16 1022.12 1022.12 1022.24 1022.32 1022.28 1022.40 1022.56 1022.52 1022.44 1022.40 1022.40 1022.40 1022.32 1022.20 1022.04 1021.92 1021.80 1021.68 1021.56 1021.48 1020.92 1020.48 1020.40 1020.16 1020.28 1020.36 1020.20 1020.16 1020.20 1020.20 1020.16 1020.08 1019.92 1019.80 1019.64 1019.56 1019.36 1019.16 1018.92
1016.68 1016.96 1017.44 1018.00 1018.48 1018.92 1019.24 1019.52 1019.92 1020.16 1020.56 1020.96 1021.40 1021.56 1021.64 1021.68 1021.76 1021.80 1021.80 1021.76 1021.80 1021.72 1022.08 1022.32 1022.28 1022.32 1022.40 1022.44 1022.44 1022.56 1022.60 1022.52 1022.40 1022.52 1022.48 1022.40 1022.40 1022.36 1022.24 1022.12 1022.04 1021.92 1021.72 1021.48 1021.04 1020.88 1020.68 1020.48 1020.44 1020.56 1020.48 1020.44 1020.60 1020.60 1020.64 1020.44 1020.36 1020.20 1019.96 1019.72 1019.60 1019.40 1019.16
1016.76 1017.04 1017.44 1018.00 1018.44 1018.96 1019.48 1019.84 1020.16 1020.44 1020.88 1021.20 1021.56 1021.76 1021.80 1021.88 1021.84 1022.04 1022.04 1022.00 1022.08 1022.08 1022.16 1022.56 1022.56 1022.48 1022.56 1022.56 1022.56 1022.60 1022.68 1022.52 1022.56 1022.64 1022.64 1022.56 1022.48 1022.52 1022.48 1022.32 1022.20 1022.12 1021.84 1021.64 1021.44 1021.24 1021.08 1020.92 1020.72 1020.64 1020.40 1020.48 1020.72 1020.88 1020.72 1020.64 1020.68 1020.64 1020.56 1020.48 1020.40 1020.20 1020.04
1016.88 1017.16 1017.48 1018.00 1018.64 1019.20 1019.60 1020.04 1020.40 1020.68 1021.12 1021.48 1021.72 1021.96 1022.00 1022.04 1022.08 1022.28 1022.32 1022.36 1022.36 1022.48 1022.48 1022.56 1022.80 1022.68 1022.72 1022.68 1022.64 1022.60 1022.72 1022.76 1022.84 1022.76 1022.72 1022.72 1022.80 1022.72 1022.68 1022.72 1022.68 1022.48 1022.08 1021.88 1021.72 1021.60 1021.44 1021.28 1021.12 1021.08 1021.08 1020.92 1021.16 1021.16 1020.92 1020.88 1021.00 1020.96 1021.00 1020.92 1020.80 1020.64 1020.48
1016.92 1017.28 1017.72 1018.32 1018.92 1019.40 1019.84 1020.12 1020.48 1020.84 1021.28 1021.64 1021.88 1022.08 1022.12 1022.20 1022.32 1022.56 1022.68 1022.72 1022.72 1022.80 1022.88 1022.80 1022.96 1022.88 1022.68 1022.68 1022.76 1022.80 1022.72 1022.84 1022.96 1022.84 1022.80 1022.88 1022.84 1022.84 1022.92 1022.92 1022.88 1022.68 1022.24 1022.04 1021.88 1021.80 1021.68 1021.60 1021.48 1021.48 1021.60 1021.32 1021.04 1020.84 1021.08 1021.32 1021.32 1021.32 1021.36 1021.36 1021.28 1021.12 1020.96
1017.04 1017.52 1018.04 1018.44 1018.96 1019.64 1020.04 1020.36 1020.72 1021.04 1021.44 1021.76 1021.96 1022.16 1022.28 1022.36 1022.48 1022.72 1022.96 1023.12 1023.16 1023.16 1023.16 1023.16 1022.96 1022.92 1022.76 1022.72 1022.88 1023.00 1023.04 1023.04 1023.08 1023.04 1022.96 1022.96 1023.04 1023.04 1023.08 1023.04 1023.00 1022.68 1022.36 1022.20 1022.08 1022.00 1021.88 1021.72 1021.72 1021.76 1021.40 1021.24 1021.28 1021.20 1021.24 1021.48 1021.56 1021.64 1021.72 1021.72 1021.64 1021.60 1021.52
1017.32 1017.76 1018.20 1018.64 1019.12 1019.76 1020.28 1020.60 1020.96 1021.20 1021.40 1021.72 1022.08 1022.36 1022.56 1022.52 1022.64 1022.84 1023.08 1023.32 1023.40 1023.48 1023.52 1023.48 1023.48 1023.24 1023.20 1023.20 1023.24 1023.20 1023.20 1023.20 1023.16 1023.20 1023.24 1023.16 1023.16 1023.04 1023.00 1023.12 1023.08 1022.72 1022.52 1022.40 1022.28 1022.20 1022.16 1022.12 1022.08 1021.80 1021.56 1021.48 1021.44 1021.48 1021.56 1021.68 1021.88 1021.96 1022.00 1022.08 1022.04 1022.00 1021.92
Wind_Speed
7 7 7 6 5 4 4 2 1 3 4 5 6 6 6 6 7 6 5 5 4 3 3 4 3 2 2 2 2 2 1 1 1 0 2 2 1 3 1 3 2 3 3 4 4 4 7 8 7 3 4 5 5 6 6 7 8 8 8 6 8 8 6
5 5 5 5 5 5 6 1 0 3 4 6 7 7 7 6 6 5 5 5 4 3 3 4 2 2 3 2 3 4 3 3 1 0 0 4 2 3 3 2 1 2 3 4 4 3 3 5 6 6 9 6 6 6 6 5 6 7 8 8 7 8 7
5 4 5 6 5 5 7 3 0 1 5 7 7 7 7 6 6 5 5 4 3 3 3 3 4 4 4 4 3 3 3 4 3 2 3 4 3 3 2 3 2 3 3 1 0 1 3 5 8 6 7 9 12 8 5 6 6 7 7 8 8 7 7
8 8 7 5 6 5 7 3 2 1 5 7 7 7 7 6 6 5 5 4 4 4 5 5 4 4 4 4 4 4 4 4 3 3 3 2 2 3 3 3 4 4 4 3 5 4 3 4 4 5 6 6 8 12 8 6 9 9 7 7 7 7 6
10 9 9 9 8 7 6 5 3 1 5 6 7 7 6 5 6 5 5 5 5 5 5 3 3 3 3 3 4 4 4 4 4 4 3 4 4 4 3 3 4 3 3 4 4 4 5 5 6 7 6 6 7 6 8 9 9 8 7 7 7 7 7
8 9 9 9 7 8 7 6 4 5 5 7 6 7 5 5 5 6 5 6 5 4 4 4 3 3 4 4 3 3 3 4 4 4 4 4 5 4 5 4 3 4 5 4 4 5 5 5 6 7 6 6 8 8 7 5 5 6 7 7 6 6 6
6 7 8 9 7 6 5 4 5 6 6 8 7 7 6 6 5 4 4 5 4 4 4 4 3 3 3 4 3 4 4 3 3 5 5 5 6 8 7 6 6 6 6 6 6 6 6 5 5 6 6 4 5 7 6 2 3 5 4 3 5 6 5
6 6 6 7 8 7 4 6 5 5 7 7 8 5 5 6 5 4 5 5 4 4 4 4 4 4 3 3 3 3 3 3 4 5 7 7 8 10 10 7 6 6 6 6 6 7 7 8 7 6 6 9 5 4 5 3 3 5 8 4 5 6 5
4 6 6 5 5 4 5 7 6 6 6 7 6 6 5 5 6 7 6 5 4 5 4 3 3 4 3 4 4 4 4 3 6 8 7 6 8 9 9 8 6 7 6 7 7 7 7 7 6 6 8 8 10 9 5 6 3 4 4 5 5 4 4
6 7 7 7 7 6 6 6 6 6 6 6 6 5 6 6 6 6 6 5 5 4 4 3 3 4 3 4 4 4 5 5 7 8 7 7 7 7 7 8 7 6 7 7 6 6 6 6 6 6 6 8 8 8 6 4 5 5 2 2 3 4 4
7 7 7 8 7 8 7 6 5 5 5 6 7 6 7 7 6 6 5 4 4 4 4 4 4 4 3 4 4 5 5 5 7 6 6 7 7 5 6 7 6 6 6 6 6 5 5 5 6 6 6 6 7 7 6 6 6 2 3 2 2 4 6
7 7 7 8 8 8 7 6 6 6 6 7 8 7 7 6 5 4 4 4 5 5 4 4 4 5 5 5 5 5 5 5 7 7 6 5 5 5 6 7 7 6 6 6 6 5 5 6 6 6 6 6 6 7 8 6 5 1 3 7 3 4 6
7 8 7 8 8 8 7 7 7 7 7 7 7 7 6 5 4 4 5 7 7 5 6 5 4 3 5 5 4 4 4 6 7 6 5 5 5 5 6 7 7 6 6 6 6 6 6 6 6 6 6 6 6 6 7 6 5 7 6 6 5 6 8
9 8 8 8 8 7 6 6 6 6 6 7 7 7 6 5 7 8 7 6 6 6 4 4 5 4 5 5 5 5 6 7 7 5 5 6 6 6 6 7 7 7 6 6 6 7 7 7 7 6 6 5 5 6 6 7 6 8 6 3 5 7 8
9 9 9 9 9 7 6 5 5 7 8 6 7 6 7 7 6 7 6 6 6 6 5 6 3 5 5 5 4 4 5 5 5 5 5 6 6 5 6 6 6 6 6 6 7 8 8 7 7 6 6 4 4 5 5 4 6 6 8 6 7 7 8
9 10 10 8 8 7 6 5 6 8 7 6 6 8 8 7 7 6 6 6 6 5 6 5 3 3 5 4 5 4 4 4 4 5 6 6 5 4 5 4 5 5 6 8 8 7 7 7 7 6 6 5 5 6 6 6 7 6 8 7 6 8 8
10 10 9 8 8 6 6 6 6 8 7 7 9 7 8 8 7 7 6 6 6 6 4 3 4 3 3 3 4 4 4 4 4 4 4 4 4 4 4 5 5 5 6 7 8 8 7 7 7 6 7 6 6 7 6 7 7 6 5 7 7 8 8
10 9 9 8 8 7 7 7 7 7 7 8 8 7 6 6 7 7 6 5 5 5 3 3 2 3 3 3 4 4 4 4 4 4 4 4 5 4 4 5 5 4 5 6 7 8 8 9 7 8 8 7 7 7 7 7 7 7 6 8 8 7 7
9 9 9 8 8 8 8 8 8 6 7 9 8 7 7 6 7 7 5 5 5 4 3 3 3 3 3 3 3 3 4 4 3 4 4 4 4 3 3 4 4 5 5 6 6 6 7 8 7 8 9 8 7 6 7 7 6 7 7 6 7 8 8
8 7 8 8 7 7 8 7 7 7 7 8 8 7 7 8 6 6 5 5 5 3 3 3 3 4 4 4 2 3 4 3 3 2 3 5 4 3 3 3 4 5 6 5 5 6 5 6 6 6 6 6 6 6 6 6 6 7 6 6 5 5 6
7 7 7 8 8 7 7 6 7 8 8 8 8 7 7 6 5 6 5 5 4 3 3 3 4 5 5 4 4 5 3 3 3 2 3 4 4 3 2 2 2 2 3 4 5 6 6 5 5 6 6 5 5 6 7 6 7 6 6 6 6 7 8
6 7 8 8 8 7 6 7 9 8 8 7 7 6 6 6 6 6 6 5 5 4 4 4 3 3 3 5 5 6 6 6 6 6 6 5 3 3 2 1 0 0 1 2 4 5 7 6 6 7 7 5 6 6 6 7 6 6 6 6 7 6 7
8 8 8 8 8 6 6 8 9 9 8 8 7 6 6 6 6 5 5 4 4 4 4 3 3 3 4 5 5 6 6 6 6 6 6 6 5 4 4 4 3 6 4 2 2 4 5 7 7 6 6 7 7 6 6 7 8 7 7 8 9 9 9
8 8 8 8 8 7 7 8 9 9 8 8 7 5 6 6 5 4 4 5 6 5 4 4 6 10 11 10 7 6 6 6 5 6 5 5 3 3 3 3 3 4 4 4 2 4 5 3 5 7 8 9 9 8 6 7 7 8 7 7 7 7 8
9 9 9 9 7 6 7 8 8 8 8 8 6 6 6 5 5 4 5 5 6 5 4 6 10 13 13 12 10 7 5 5 5 5 4 4 3 3 3 3 3 3 3 3 1 1 3 4 4 5 5 6 8 11 10 8 6 7 8 7 8 9 7
9 9 8 7 6 7 7 8 8 8 8 7 7 6 5 5 5 4 5 6 6 4 4 6 10 13 13 12 12 9 6 6 6 5 4 4 4 4 4 4 4 5 4 7 3 2 0 1 3 4 7 8 9 10 11 13 11 7 5 7 8 10 9
10 9 8 8 8 8 8 9 7 7 7 7 7 6 5 5 4 5 5 6 5 4 4 5 10 12 12 12 12 9 6 6 5 5 4 4 4 4 4 5 5 6 5 5 5 4 2 2 1 2 4 4 5 7 10 12 12 12 9 7 8 10 9
10 8 8 9 9 9 9 8 8 7 6 7 6 6 5 5 4 4 4 5 6 5 3 4 9 11 11 11 11 8 5 5 5 4 4 4 4 4 4 4 3 4 5 5 5 6 3 4 4 3 3 3 4 4 4 6 7 7 7 7 7 7 8
9 8 10 10 10 9 8 8 8 7 6 6 5 5 5 5 4 4 4 5 7 6 3 7 11 11 11 10 9 5 4 5 4 4 4 4 4 4 4 4 4 5 5 5 8 8 7 5 6 4 4 4 4 4 3 1 2 6 7 7 7 7 6
8 10 10 10 10 9 9 10 8 7 8 6 6 6 5 4 3 4 4 5 7 6 5 8 12 11 10 9 7 5 4 4 4 5 5 4 4 4 4 4 4 5 6 7 8 10 9 9 5 5 5 5 5 5 7 5 6 9 10 10 12 13 13
9 10 9 9 9 8 9 8 8 8 9 7 7 5 5 5 4 4 5 5 5 8 5 7 11 11 10 8 7 5 3 5 5 5 5 4 5 4 6 13 9 5 6 5 10 12 10 8 6 5 5 6 6 6 6 5 5 7 9 9 13 14 15
10 11 10 9 9 9 9 8 7 7 8 7 6 5 5 6 4 4 4 5 7 9 7 6 10 11 10 8 6 4 5 5 6 5 5 6 5 6 6 8 12 10 8 10 14 13 12 8 6 4 4 5 6 5 4 5 6 7 8 9 11 10 12
9 10 11 11 10 9 8 8 8 8 7 7 6 5 5 6 6 5 4 5 6 6 8 5 7 11 9 9 8 5 4 6 6 5 5 6 7 6 6 7 9 12 13 13 14 13 12 10 5 4 4 5 5 5 4 6 6 6 7 8 7 8 9
9 10 11 10 9 9 9 9 8 9 8 6 7 6 6 6 7 6 5 5 6 5 6 8 6 11 10 10 9 8 4 5 4 4 5 5 6 6 7 6 5 9 12 13 13 13 13 12 10 6 6 5 1 1 5 6 7 8 7 7 7 7 8
10 9 10 10 11 10 8 9 9 9 7 7 7 7 6 6 7 7 6 5 6 6 5 9 8 10 12 11 9 7 6 4 3 4 5 5 5 5 5 4 4 7 13 14 14 13 13 13 12 8 6 9 11 12 6 4 5 6 6 7 7 8 8
9 8 9 11 12 11 9 9 9 9 9 7 8 7 7 7 8 7 7 6 5 5 5 4 9 8 11 11 9 8 7 5 4 4 5 4 3 3 3 4 4 10 13 14 14 14 14 14 11 8 13 14 12 12 9 6 6 6 6 6 7 7 7
9 9 11 11 12 11 9 9 9 8 9 9 8 7 6 7 7 8 8 6 6 5 4 5 5 8 8 10 8 8 7 5 4 3 3 3 2 3 6 5 5 11 13 13 14 14 14 12 10 14 14 14 13 11 7 7 6 6 5 6 7 7 7
Wind_Direction
170 162 159 155 146 144 130 125 221 162 118 122 111 90 88 94 92 81 78 71 67 52 66 68 77 46 65 53 84 102 94 91 109 114 289 280 346 284 280 294 278 262 255 233 244 254 293 296 303 269 257 284 291 277 272 276 281 280 274 262 263 258 242
144 154 153 139 132 132 122 103 20 118 108 88 94 94 85 84 83 87 81 77 71 61 68 65 54 59 59 50 30 23 9 339 343 246 325 311 312 289 331 299 272 254 264 232 244 215 245 291 289 301 312 293 270 268 274 260 271 277 277 271 256 260 256
144 146 148 137 132 137 139 163 222 133 108 95 88 90 87 80 85 83 80 78 73 58 53 47 44 37 24 27 17 0 351 345 322 333 321 305 309 294 284 292 317 312 312 321 80 209 249 228 269 293 300 314 316 304 289 293 289 282 275 275 272 252 250
160 153 140 131 127 129 146 171 189 146 106 103 96 86 89 87 79 74 70 62 60 62 63 59 55 58 42 40 25 20 14 360 338 337 341 317 300 312 305 292 287 285 283 287 297 288 265 276 276 266 289 291 293 302 309 301 297 292 283 277 272 269 247
164 162 155 152 157 147 148 176 171 150 117 103 96 94 85 82 80 72 73 72 69 67 65 67 57 57 51 45 38 27 6 359 1 356 349 343 340 325 304 300 287 284 296 297 293 284 282 276 276 282 286 296 281 263 290 295 285 278 281 278 273 267 262
172 163 155 148 151 150 161 172 144 167 129 100 97 94 91 91 90 80 74 76 73 70 76 63 49 45 43 44 35 20 7 9 346 346 351 352 357 352 339 327 338 1 347 327 312 301 284 280 278 280 274 280 286 290 290 276 295 292 272 272 281 273 264
167 155 153 143 146 147 157 143 147 151 122 114 110 107 116 103 91 104 100 90 94 88 78 71 56 43 45 43 28 22 356 337 352 20 21 15 24 30 21 8 12 12 358 349 337 326 315 297 273 278 292 270 274 288 285 265 274 310 315 297 287 284 275
154 142 139 135 144 152 147 121 131 125 113 114 113 119 111 108 116 96 81 83 78 75 67 57 51 45 38 36 27 5 353 360 25 41 38 29 30 29 27 10 2 11 356 349 340 342 337 330 317 302 297 303 287 264 292 264 266 248 268 297 295 299 270
136 121 116 117 123 127 122 121 119 114 114 114 114 116 111 103 93 90 88 83 81 73 66 58 53 48 28 33 16 5 25 18 52 53 44 38 36 34 29 10 11 7 357 352 351 346 337 337 336 336 332 318 309 313 301 290 292 279 260 287 307 291 325
139 132 130 123 120 112 111 110 112 118 117 111 108 100 99 93 95 95 96 93 83 81 67 51 53 41 24 33 28 28 43 45 60 55 49 44 36 35 30 21 18 3 2 352 349 344 336 337 332 328 330 327 328 307 308 303 312 321 296 301 323 296 343
131 119 118 120 119 114 108 107 107 98 96 100 100 101 97 93 92 94 95 92 89 82 76 48 40 29 35 44 37 51 48 63 64 61 54 51 41 34 30 26 15 12 354 353 346 331 330 330 332 330 331 337 334 329 320 311 312 282 289 301 263 297 320
123 120 118 114 114 112 112 105 96 106 101 95 98 98 97 95 95 97 97 85 68 56 51 54 43 43 47 49 38 54 64 69 67 59 46 48 41 33 29 26 15 10 353 348 336 333 336 344 339 342 350 341 338 342 334 320 312 267 10 316 294 292 304
120 117 117 117 113 111 110 111 111 101 106 101 97 98 97 110 114 86 73 74 71 62 63 48 33 52 63 53 43 59 67 74 68 60 49 43 42 35 33 31 18 3 352 343 343 346 352 352 355 0 355 346 342 343 339 328 306 304 321 291 306 321 329
114 112 106 103 102 104 108 108 110 120 103 95 98 93 94 72 70 75 73 71 76 71 62 64 36 57 60 54 46 57 61 66 70 65 60 55 46 42 38 37 19 4 353 359 354 358 1 4 7 4 2 352 344 337 336 326 312 306 303 300 356 341 334
113 110 106 105 109 112 115 116 122 101 96 99 100 98 80 82 81 80 79 73 70 60 51 45 28 59 65 63 58 55 71 77 78 74 65 57 48 42 42 36 17 6 2 6 6 12 13 18 11 8 3 337 317 315 322 313 313 312 324 342 353 342 340
112 108 106 107 110 113 115 115 103 98 96 87 70 75 86 86 86 82 75 70 65 56 44 29 14 70 66 62 71 72 71 82 80 72 66 60 52 44 45 35 13 2 3 15 16 16 19 20 9 5 345 325 327 334 333 349 350 341 344 333 351 343 347
110 109 106 110 112 116 113 102 97 91 86 78 80 81 85 89 84 78 68 63 63 60 44 21 46 51 77 75 82 83 85 85 79 71 75 71 53 44 40 35 17 8 2 20 20 18 18 19 17 0 350 338 349 349 354 1 13 356 343 341 344 344 337
113 111 111 113 115 115 107 101 94 92 81 81 86 87 82 87 87 76 71 62 61 59 35 36 50 31 39 66 79 89 94 92 85 84 80 77 71 52 42 40 18 9 7 21 23 24 15 25 22 23 14 0 3 358 8 6 7 9 2 1 337 336 329
114 115 113 111 115 112 109 106 105 94 83 94 89 87 90 77 76 77 67 58 53 49 12 11 33 25 19 33 75 92 107 112 110 98 88 83 78 61 49 35 22 17 19 26 18 16 20 25 25 27 24 15 6 6 11 8 9 9 9 358 351 334 344
117 114 111 110 107 106 107 109 103 96 101 103 100 91 88 83 70 75 67 60 52 37 14 2 20 21 23 17 35 106 121 115 121 121 104 95 88 77 59 46 36 27 29 23 20 11 10 23 26 26 16 9 355 5 8 2 355 2 3 350 342 345 334
117 117 109 102 100 104 103 89 95 105 103 98 99 105 102 94 83 77 70 64 52 41 22 2 7 27 26 21 45 64 93 128 121 108 91 98 104 92 75 48 36 27 37 27 27 14 8 13 12 29 8 359 357 2 10 0 358 355 356 355 349 338 350
117 112 105 109 114 112 98 106 112 109 105 101 103 108 108 98 93 79 63 61 55 44 44 23 17 19 26 51 60 67 63 54 47 45 39 36 62 99 85 57 45 1 63 61 28 28 21 20 26 30 10 2 10 14 12 13 5 360 360 355 352 343 340
115 112 113 118 120 108 105 115 115 113 112 111 112 113 99 91 87 85 80 68 65 56 43 22 11 45 77 81 70 71 67 57 55 55 52 48 39 32 21 4 357 25 13 358 325 335 359 19 33 43 19 17 14 16 22 20 18 8 4 8 8 354 353
120 120 121 121 120 104 114 118 115 114 114 112 110 101 93 86 80 75 79 80 70 60 43 21 47 84 77 79 81 71 75 66 57 57 55 53 42 15 360 346 340 355 2 356 345 330 314 323 350 29 33 26 22 26 20 25 28 18 12 11 3 3 2
128 127 126 126 120 112 121 115 114 113 112 110 107 102 97 95 93 86 82 78 72 66 59 31 79 79 77 74 81 81 73 74 64 59 52 46 28 17 3 357 356 352 340 348 338 315 318 293 303 323 6 16 30 30 36 38 24 23 16 14 14 13 359
133 132 130 128 125 129 124 117 114 115 117 119 115 111 113 104 98 96 92 86 78 66 70 36 78 82 81 79 77 81 73 72 71 60 48 38 27 15 9 12 15 9 347 0 17 359 319 318 307 4 26 14 23 29 33 37 33 35 24 29 25 22 9
134 136 130 126 133 132 122 120 121 120 120 117 118 118 113 108 102 89 86 90 90 76 70 59 95 92 90 84 79 79 79 74 75 66 55 42 33 24 15 20 20 16 358 7 358 349 28 75 50 27 25 26 28 19 25 37 34 31 31 39 34 32 8
142 141 131 137 138 131 120 117 121 123 122 123 124 125 120 107 94 85 86 95 94 83 70 100 125 110 101 95 89 84 79 81 75 69 56 46 44 38 18 16 23 16 7 8 4 330 45 61 61 44 25 13 20 24 23 29 33 32 31 32 38 37 26
146 135 137 139 136 130 119 114 117 112 102 93 89 94 84 88 89 83 77 85 89 88 82 126 140 128 115 107 96 83 79 74 70 60 47 33 30 29 29 21 26 26 21 22 351 13 47 71 68 64 45 17 5 3 19 72 46 49 46 39 38 37 31
139 139 140 139 135 126 117 114 112 112 105 102 102 94 96 88 86 90 78 72 93 95 99 137 142 138 127 117 98 86 79 73 66 58 43 31 22 23 28 28 30 28 31 24 1 33 36 71 62 61 59 46 32 27 17 19 37 45 49 44 41 40 34
141 140 138 136 129 121 117 114 117 119 117 116 106 108 106 91 69 72 80 76 94 110 106 139 140 130 126 119 108 102 89 84 66 57 47 35 30 28 32 39 38 39 43 28 37 43 38 56 52 38 57 59 47 39 22 11 20 20 27 39 38 36 34
143 140 136 131 128 127 123 121 119 112 110 107 108 109 100 96 79 60 62 76 83 100 109 126 131 124 121 120 109 99 92 82 68 46 47 40 33 35 25 31 37 40 47 43 45 46 47 61 64 45 52 68 62 51 24 36 31 24 22 27 26 25 29
140 137 132 130 133 126 118 114 114 109 104 109 112 104 100 96 90 67 57 69 72 93 108 108 124 120 122 120 114 101 87 83 76 61 47 50 43 29 29 28 26 29 44 48 50 48 47 54 72 55 61 72 76 60 40 51 34 36 29 33 28 29 32
136 133 132 131 121 118 121 118 113 109 110 107 106 105 102 100 89 75 61 62 79 73 101 113 114 121 120 109 100 100 91 94 95 79 66 54 49 45 32 25 25 27 50 52 55 53 52 48 53 58 47 54 42 72 61 61 45 40 39 29 29 28 31
134 132 125 121 122 121 121 118 116 114 114 114 113 111 109 100 94 82 64 61 69 76 81 113 124 123 116 107 106 109 103 97 106 88 60 47 40 37 25 31 28 37 56 56 54 54 55 58 54 61 66 78 73 70 71 67 56 46 38 34 30 33 30
129 126 127 127 125 125 124 119 119 120 119 114 112 112 109 109 102 94 78 60 60 65 69 86 119 121 120 118 106 86 89 95 69 79 85 57 40 28 27 48 44 57 61 58 56 52 49 49 53 49 56 58 62 70 66 57 58 53 43 34 39 40 32
118 125 128 127 125 125 125 124 125 128 126 124 122 116 112 112 106 102 99 86 67 62 56 74 65 81 89 83 82 80 69 59 65 92 89 83 50 66 68 62 63 62 61 58 55 54 51 49 51 46 49 53 55 57 58 56 53 61 57 40 44 43 39